This is the latest recevied weather packets stored in our database for station/object K4CRS-13. If no packets are shown the sender has not sent any weather packets the latest 10 day(s).
| Time | Temp. | Humidity | Pressure | Rain* | Wind** | Luminosity | Snow |
|---|---|---|---|---|---|---|---|
| 1788018373 | 32.22° C | 49% | 1055.3 hPa | 0 mm | - | 656 W/m² | - |
| 1788018068 | 31.67° C | 47% | 1055.2 hPa | 0 mm | - | 645 W/m² | - |
| 1788017764 | 31.67° C | 52% | 1055.2 hPa | 0 mm | - | 632 W/m² | - |
| 1788017461 | 31.11° C | 57% | 1055 hPa | 0 mm | - | 622 W/m² | - |
| 1788017157 | 31.11° C | 55% | 1055 hPa | 0 mm | - | 612 W/m² | - |
| 1788016857 | 30.56° C | 55% | 1055.1 hPa | 0 mm | - | 601 W/m² | - |
| 1788016555 | 31.11° C | 55% | 1055.2 hPa | 0 mm | - | 587 W/m² | - |
| 1788016250 | 31.11° C | 60% | 1054.9 hPa | 0 mm | - | 576 W/m² | - |
| 1788015948 | 31.11° C | 58% | 1054.9 hPa | 0 mm | - | 561 W/m² | - |
| 1788015644 | 30.56° C | 65% | 1054.8 hPa | 0 mm | - | 550 W/m² | - |
| 1788015343 | 30.56° C | 61% | 1054.9 hPa | 0 mm | - | 535 W/m² | - |
| 1788015038 | 30.56° C | 62% | 1054.9 hPa | 0 mm | - | 522 W/m² | - |
| 1788014737 | 30° C | 62% | 1055 hPa | 0 mm | - | 511 W/m² | - |
| 1788014432 | 29.44° C | 64% | 1055.1 hPa | 0 mm | - | 495 W/m² | - |
| 1788014128 | 29.44° C | 67% | 1055 hPa | 0 mm | - | 477 W/m² | - |
| 1788013827 | 30° C | 67% | 1055.2 hPa | 0 mm | - | 464 W/m² | - |
| 1788013526 | 30° C | 69% | 1055 hPa | 0 mm | - | 444 W/m² | - |
| 1788013226 | 29.44° C | 69% | 1055.1 hPa | 0 mm | - | 430 W/m² | - |
| 1788012921 | 30° C | 68% | 1055.1 hPa | 0 mm | - | 413 W/m² | - |
| 1788012621 | 29.44° C | 70% | 1055 hPa | 0 mm | - | 142 W/m² | - |
| 1788012321 | 28.89° C | 71% | 1054.8 hPa | 0 mm | - | 380 W/m² | - |
| 1788012017 | 28.33° C | 71% | 1054.8 hPa | 0 mm | - | 364 W/m² | - |
| 1788011714 | 28.33° C | 73% | 1054.7 hPa | 0 mm | - | 345 W/m² | - |
| 1788011410 | 27.78° C | 74% | 1055 hPa | 0 mm | - | 322 W/m² | - |
| 1788011109 | 26.67° C | 77% | 1054.8 hPa | 0 mm | - | 303 W/m² | - |
* Rain latest hour (hover to see other rain measurements)
** Current wind speed in m/s (hover to see current wind gust speed)